Time,TemperatureF,DewpointF,PressureIn,WindDirection,WindDirectionDegrees,WindSpeedMPH,WindSpeedGustMPH,Humidity,HourlyPrecipIn,Conditions,Clouds,dailyrainin,SolarRadiationWatts/m^2,SoftwareType,DateUTC
2013-03-19 00:01:00,33.0,19.0,-100.00,East,82,4.0,9.0,57,0.00,,,-99.99,1.000000,,2013-03-19 07:01:00,
2013-03-19 00:02:00,33.0,23.0,-100.00,NNE,12,1.0,7.0,65,0.00,,,0.00,1.000000,,2013-03-19 07:02:00,
2013-03-19 00:32:00,33.0,23.0,-100.00,NNE,12,1.0,7.0,65,0.00,,,0.00,1.000000,,2013-03-19 07:32:00,
2013-03-19 00:42:00,33.0,23.0,-100.00,NNE,12,1.0,7.0,65,0.00,,,0.00,1.000000,,2013-03-19 07:42:00,
2013-03-19 00:52:00,33.0,23.0,-100.00,NNE,12,1.0,7.0,65,0.00,,,0.00,1.000000,,2013-03-19 07:52:00,
2013-03-19 01:02:00,31.0,22.0,-100.00,East,98,1.0,5.0,70,0.00,,,0.00,1.000000,,2013-03-19 08:02:00,
2013-03-19 01:32:00,31.0,22.0,-100.00,East,98,1.0,5.0,70,0.00,,,0.00,1.000000,,2013-03-19 08:32:00,
2013-03-19 01:42:00,31.0,22.0,-100.00,East,98,1.0,5.0,70,0.00,,,0.00,1.000000,,2013-03-19 08:42:00,
2013-03-19 01:52:00,31.0,22.0,-100.00,East,98,1.0,5.0,70,0.00,,,0.00,1.000000,,2013-03-19 08:52:00,
2013-03-19 02:02:00,32.0,23.0,-100.00,SE,128,3.0,4.0,70,0.00,,,0.00,1.000000,,2013-03-19 09:02:00,
2013-03-19 02:23:00,32.0,23.0,-100.00,SE,128,3.0,4.0,70,0.00,,,0.00,1.000000,,2013-03-19 09:23:00,
2013-03-19 02:33:00,32.0,23.0,-100.00,SE,128,3.0,4.0,70,0.00,,,0.00,1.000000,,2013-03-19 09:33:00,
2013-03-19 02:43:00,32.0,23.0,-100.00,SE,128,3.0,4.0,70,0.00,,,0.00,1.000000,,2013-03-19 09:43:00,
2013-03-19 02:53:00,32.0,23.0,-100.00,SE,128,3.0,4.0,70,0.00,,,0.00,1.000000,,2013-03-19 09:53:00,
2013-03-19 03:02:00,29.0,21.0,-100.00,SW,224,2.0,4.0,71,0.00,,,0.00,1.000000,,2013-03-19 10:02:00,
2013-03-19 03:33:00,29.0,21.0,-100.00,SW,224,2.0,4.0,71,0.00,,,0.00,1.000000,,2013-03-19 10:33:00,
2013-03-19 03:42:00,29.0,21.0,-100.00,SW,224,2.0,4.0,71,0.00,,,0.00,1.000000,,2013-03-19 10:42:00,
2013-03-19 03:53:00,29.0,21.0,-100.00,SW,224,2.0,4.0,71,0.00,,,0.00,1.000000,,2013-03-19 10:53:00,
2013-03-19 04:02:00,30.0,21.0,-100.00,SSE,167,1.0,4.0,69,0.00,,,0.00,1.000000,,2013-03-19 11:02:00,
2013-03-19 04:33:00,30.0,21.0,-100.00,SSE,167,1.0,4.0,69,0.00,,,0.00,1.000000,,2013-03-19 11:33:00,
2013-03-19 04:43:00,30.0,21.0,-100.00,SSE,167,1.0,4.0,69,0.00,,,0.00,1.000000,,2013-03-19 11:43:00,
2013-03-19 04:52:00,30.0,21.0,-100.00,SSE,167,1.0,4.0,69,0.00,,,0.00,1.000000,,2013-03-19 11:52:00,
2013-03-19 05:02:00,30.0,21.0,-100.00,ESE,110,2.0,3.0,69,0.00,,,0.00,1.000000,,2013-03-19 12:02:00,
2013-03-19 05:23:00,30.0,21.0,-100.00,ESE,110,2.0,3.0,69,0.00,,,0.00,1.000000,,2013-03-19 12:23:00,
2013-03-19 05:33:00,30.0,21.0,-100.00,ESE,110,2.0,3.0,69,0.00,,,0.00,1.000000,,2013-03-19 12:33:00,
2013-03-19 05:43:00,30.0,21.0,-100.00,ESE,110,2.0,3.0,69,0.00,,,0.00,1.000000,,2013-03-19 12:43:00,
2013-03-19 05:52:00,30.0,21.0,-100.00,ESE,110,2.0,3.0,69,0.00,,,0.00,1.000000,,2013-03-19 12:52:00,
2013-03-19 06:33:00,30.0,22.0,-100.00,SW,215,3.0,4.0,72,0.00,,,0.00,1.000000,,2013-03-19 13:33:00,
2013-03-19 06:42:00,30.0,22.0,-100.00,SW,215,3.0,4.0,72,0.00,,,0.00,1.000000,,2013-03-19 13:42:00,
2013-03-19 06:52:00,30.0,22.0,-100.00,SW,215,3.0,4.0,72,0.00,,,0.00,1.000000,,2013-03-19 13:52:00,
2013-03-19 07:01:00,30.0,22.0,-100.00,SW,215,3.0,4.0,72,0.00,,,0.00,1.000000,,2013-03-19 14:01:00,
2013-03-19 07:02:00,29.0,22.0,-100.00,SSW,211,2.0,4.0,74,0.00,,,0.00,1.000000,,2013-03-19 14:02:00,
2013-03-19 07:33:00,29.0,22.0,-100.00,SSW,211,2.0,4.0,74,0.00,,,0.00,1.000000,,2013-03-19 14:33:00,
2013-03-19 07:42:00,29.0,22.0,-100.00,SSW,211,2.0,4.0,74,0.00,,,0.00,1.000000,,2013-03-19 14:42:00,
2013-03-19 07:52:00,29.0,22.0,-100.00,SSW,211,2.0,4.0,74,0.00,,,0.00,1.000000,,2013-03-19 14:52:00,
2013-03-19 08:02:00,31.0,23.0,-100.00,ENE,68,1.0,4.0,73,0.00,,,0.00,28.000000,,2013-03-19 15:02:00,
2013-03-19 08:34:00,31.0,23.0,-100.00,ENE,68,1.0,4.0,73,0.00,,,0.00,28.000000,,2013-03-19 15:34:00,
2013-03-19 08:44:00,31.0,23.0,-100.00,ENE,68,1.0,4.0,73,0.00,,,0.00,28.000000,,2013-03-19 15:44:00,
2013-03-19 08:53:00,31.0,23.0,-100.00,ENE,68,1.0,4.0,73,0.00,,,0.00,28.000000,,2013-03-19 15:53:00,
2013-03-19 09:02:00,33.0,24.0,-100.00,NNE,18,2.0,5.0,70,0.00,,,0.00,89.000000,,2013-03-19 16:02:00,
2013-03-19 09:34:00,33.0,24.0,-100.00,NNE,18,2.0,5.0,70,0.00,,,0.00,89.000000,,2013-03-19 16:34:00,
2013-03-19 09:44:00,33.0,24.0,-100.00,NNE,18,2.0,5.0,70,0.00,,,0.00,89.000000,,2013-03-19 16:44:00,
2013-03-19 09:54:00,33.0,24.0,-100.00,NNE,18,2.0,5.0,70,0.00,,,0.00,89.000000,,2013-03-19 16:54:00,
2013-03-19 10:02:00,38.0,25.0,-100.00,NNW,329,2.0,4.0,60,0.00,,,0.00,225.000000,,2013-03-19 17:02:00,
2013-03-19 10:34:00,38.0,25.0,-100.00,NNW,329,2.0,4.0,60,0.00,,,0.00,225.000000,,2013-03-19 17:34:00,
2013-03-19 10:44:00,38.0,25.0,-100.00,NNW,329,2.0,4.0,60,0.00,,,0.00,225.000000,,2013-03-19 17:44:00,
2013-03-19 10:53:00,38.0,25.0,-100.00,NNW,329,2.0,4.0,60,0.00,,,0.00,225.000000,,2013-03-19 17:53:00,
2013-03-19 11:02:00,39.0,25.0,-100.00,NNW,330,3.0,6.0,56,0.00,,,0.00,268.000000,,2013-03-19 18:02:00,
2013-03-19 11:34:00,39.0,25.0,-100.00,NNW,330,3.0,6.0,56,0.00,,,0.00,268.000000,,2013-03-19 18:34:00,
2013-03-19 11:43:00,39.0,25.0,-100.00,NNW,330,3.0,6.0,56,0.00,,,0.00,268.000000,,2013-03-19 18:43:00,
2013-03-19 11:53:00,39.0,25.0,-100.00,NNW,330,3.0,6.0,56,0.00,,,0.00,268.000000,,2013-03-19 18:53:00,
2013-03-19 12:02:00,41.0,26.0,-100.00,West,262,3.0,9.0,54,0.00,,,0.00,310.000000,,2013-03-19 19:02:00,
2013-03-19 12:33:00,41.0,26.0,-100.00,West,262,3.0,9.0,54,0.00,,,0.00,310.000000,,2013-03-19 19:33:00,
2013-03-19 12:43:00,41.0,26.0,-100.00,West,262,3.0,9.0,54,0.00,,,0.00,310.000000,,2013-03-19 19:43:00,
2013-03-19 12:53:00,41.0,26.0,-100.00,West,262,3.0,9.0,54,0.00,,,0.00,310.000000,,2013-03-19 19:53:00,
2013-03-19 13:33:00,47.0,26.0,-100.00,North,0,5.0,9.0,43,0.00,,,0.00,459.000000,,2013-03-19 20:33:00,
2013-03-19 13:43:00,47.0,26.0,-100.00,North,0,5.0,9.0,43,0.00,,,0.00,459.000000,,2013-03-19 20:43:00,
2013-03-19 13:52:00,47.0,26.0,-100.00,North,0,5.0,9.0,43,0.00,,,0.00,459.000000,,2013-03-19 20:52:00,
2013-03-19 14:01:00,47.0,26.0,-100.00,North,0,5.0,9.0,43,0.00,,,0.00,459.000000,,2013-03-19 21:01:00,
2013-03-19 14:02:00,45.0,25.0,-100.00,North,5,6.0,11.0,46,0.00,,,0.00,394.000000,,2013-03-19 21:02:00,
2013-03-19 14:34:00,45.0,25.0,-100.00,North,5,6.0,11.0,46,0.00,,,0.00,394.000000,,2013-03-19 21:34:00,
2013-03-19 14:43:00,45.0,25.0,-100.00,North,5,6.0,11.0,46,0.00,,,0.00,394.000000,,2013-03-19 21:43:00,
2013-03-19 14:53:00,45.0,25.0,-100.00,North,5,6.0,11.0,46,0.00,,,0.00,394.000000,,2013-03-19 21:53:00,
2013-03-19 15:02:00,44.0,25.0,-100.00,North,8,7.0,12.0,47,0.00,,,-99.99,260.000000,,2013-03-19 22:02:00,
2013-03-19 15:33:00,44.0,25.0,-100.00,North,8,7.0,12.0,47,0.00,,,-99.99,260.000000,,2013-03-19 22:33:00,
2013-03-19 15:43:00,44.0,25.0,-100.00,North,8,7.0,12.0,47,0.00,,,-99.99,260.000000,,2013-03-19 22:43:00,
2013-03-19 15:53:00,44.0,25.0,-100.00,North,8,7.0,12.0,47,0.00,,,-99.99,260.000000,,2013-03-19 22:53:00,
2013-03-19 16:02:00,44.0,25.0,-100.00,NNE,21,8.0,12.0,47,0.00,,,0.00,201.000000,,2013-03-19 23:02:00,
2013-03-19 16:22:00,44.0,25.0,-100.00,NNE,21,8.0,12.0,47,0.00,,,0.00,201.000000,,2013-03-19 23:22:00,
2013-03-19 16:33:00,44.0,25.0,-100.00,NNE,21,8.0,12.0,47,0.00,,,0.00,201.000000,,2013-03-19 23:33:00,
2013-03-19 16:43:00,44.0,25.0,-100.00,NNE,21,8.0,12.0,47,0.00,,,0.00,201.000000,,2013-03-19 23:43:00,
2013-03-19 16:52:00,44.0,25.0,-100.00,NNE,21,8.0,12.0,47,0.00,,,0.00,201.000000,,2013-03-19 23:52:00,
2013-03-19 17:02:00,42.0,23.0,-100.00,NNE,30,10.0,12.0,47,0.00,,,0.00,73.000000,,2013-03-20 00:02:00,
2013-03-19 17:33:00,42.0,23.0,-100.00,NNE,30,10.0,12.0,47,0.00,,,0.00,73.000000,,2013-03-20 00:33:00,
2013-03-19 17:42:00,42.0,23.0,-100.00,NNE,30,10.0,12.0,47,0.00,,,0.00,73.000000,,2013-03-20 00:42:00,
2013-03-19 17:52:00,42.0,23.0,-100.00,NNE,30,10.0,12.0,47,0.00,,,0.00,73.000000,,2013-03-20 00:52:00,
2013-03-19 18:02:00,42.0,25.0,-100.00,North,8,5.0,12.0,51,0.00,,,0.00,61.000000,,2013-03-20 01:02:00,
2013-03-19 18:23:00,42.0,25.0,-100.00,North,8,5.0,12.0,51,0.00,,,0.00,61.000000,,2013-03-20 01:23:00,
2013-03-19 18:32:00,42.0,25.0,-100.00,North,8,5.0,12.0,51,0.00,,,0.00,61.000000,,2013-03-20 01:32:00,
2013-03-19 18:43:00,42.0,25.0,-100.00,North,8,5.0,12.0,51,0.00,,,0.00,61.000000,,2013-03-20 01:43:00,
2013-03-19 18:52:00,42.0,25.0,-100.00,North,8,5.0,12.0,51,0.00,,,0.00,61.000000,,2013-03-20 01:52:00,
2013-03-19 19:23:00,38.0,32.0,-100.00,ENE,75,4.0,6.0,80,0.01,,,0.01,17.000000,,2013-03-20 02:23:00,
2013-03-19 19:32:00,38.0,32.0,-100.00,ENE,75,4.0,6.0,80,0.01,,,0.01,17.000000,,2013-03-20 02:32:00,
2013-03-19 19:43:00,38.0,32.0,-100.00,ENE,75,4.0,6.0,80,0.01,,,0.01,17.000000,,2013-03-20 02:43:00,
2013-03-19 19:52:00,38.0,32.0,-100.00,ENE,75,4.0,6.0,80,0.01,,,0.01,17.000000,,2013-03-20 02:52:00,
2013-03-19 20:01:00,38.0,32.0,-100.00,ENE,75,4.0,6.0,80,0.01,,,0.01,17.000000,,2013-03-20 03:01:00,
2013-03-19 20:02:00,39.0,34.0,-100.00,SW,227,3.0,8.0,82,0.00,,,0.01,1.000000,,2013-03-20 03:02:00,
2013-03-19 20:34:00,39.0,34.0,-100.00,SW,227,3.0,8.0,82,0.00,,,0.01,1.000000,,2013-03-20 03:34:00,
2013-03-19 20:43:00,39.0,34.0,-100.00,SW,227,3.0,8.0,82,0.00,,,0.01,1.000000,,2013-03-20 03:43:00,
2013-03-19 20:53:00,39.0,34.0,-100.00,SW,227,3.0,8.0,82,0.00,,,0.01,1.000000,,2013-03-20 03:53:00,
2013-03-19 21:02:00,37.0,34.0,-100.00,WSW,255,2.0,7.0,89,0.02,,,0.03,1.000000,,2013-03-20 04:02:00,
2013-03-19 21:23:00,37.0,34.0,-100.00,WSW,255,2.0,7.0,89,0.02,,,0.03,1.000000,,2013-03-20 04:23:00,
2013-03-19 21:32:00,37.0,34.0,-100.00,WSW,255,2.0,7.0,89,0.02,,,0.03,1.000000,,2013-03-20 04:32:00,
2013-03-19 21:43:00,37.0,34.0,-100.00,WSW,255,2.0,7.0,89,0.02,,,0.03,1.000000,,2013-03-20 04:43:00,
2013-03-19 21:52:00,37.0,34.0,-100.00,WSW,255,2.0,7.0,89,0.02,,,0.03,1.000000,,2013-03-20 04:52:00,
2013-03-19 22:02:00,39.0,33.0,-100.00,WSW,239,5.0,18.0,80,0.00,,,0.03,1.000000,,2013-03-20 05:02:00,
2013-03-19 22:32:00,39.0,33.0,-100.00,WSW,239,5.0,18.0,80,0.00,,,0.03,1.000000,,2013-03-20 05:32:00,
2013-03-19 22:42:00,39.0,33.0,-100.00,WSW,239,5.0,18.0,80,0.00,,,0.03,1.000000,,2013-03-20 05:42:00,
2013-03-19 22:52:00,39.0,33.0,-100.00,WSW,239,5.0,18.0,80,0.00,,,0.03,1.000000,,2013-03-20 05:52:00,
2013-03-19 23:02:00,37.0,35.0,-100.00,NNE,25,4.0,14.0,92,0.01,,,0.04,0.000000,,2013-03-20 06:02:00,
2013-03-19 23:32:00,37.0,35.0,-100.00,NNE,25,4.0,14.0,92,0.01,,,0.04,0.000000,,2013-03-20 06:32:00,
2013-03-19 23:43:00,37.0,35.0,-100.00,NNE,25,4.0,14.0,92,0.01,,,0.04,0.000000,,2013-03-20 06:43:00,
2013-03-19 23:52:00,37.0,35.0,-100.00,NNE,25,4.0,14.0,92,0.01,,,0.04,0.000000,,2013-03-20 06:52:00,